Retour au catalogue

DMSP 5D-2 F13 DEB

ActifSSO
NORAD 40465·DEBRIS·🇺🇸 United States

Lancé Mar 24, 1995 depuis Vandenberg Space Force Base

Loading…

Prochains Passages (prochaines 24 heures)

TLE

FraisSource: Space-Track

Époque: Sep 13, 2026, 07:17 UTC

1 40465U 95015BH  26256.30375718  .00002254  00000-0  95509-3 0  9998
2 40465  98.9598 286.3747 0039689 177.1177 183.0238 14.26040635592846

Suivez DMSP 5D-2 F13 DEB en temps réel avec AllMySat

Download on the App Store